FENGYUN 1C DEB

Satellite information

Favourite Embed

Satellite Type and Status

DEBRISIN ORBIT

Key statistics

Satellite FENGYUN 1C DEB at a glance.

Uptime

9616

Days in orbit

Revolutions

≈ 14.5

Per day

Orbit

SSO

Sun Synchronous Orbit

Inclination

98.8

Latest

Satellite identification and parameters

Extended collection of information and parameters for FENGYUN 1C DEB.

Object identification

Identified? True

Debris? True

Object name: FENGYUN 1C DEB

International designator: 1999-025DB

Object number (NORAD): 29809

Object ID (CCSDS): 29809

Country: PEOPLES REPUBLIC OF CHINA (PRC)

Current information (Y/N): Y

RCS size: SMALL

Orbital parameters

Period: 99.565 minutes

Inclination: 98.8422 deg

SMA: 7115.927 km

Apoapsis: 820.0 km

Periapsis: 655.584 km

RAAN: 208.0352 deg

Eccentricy: 0.01155272

Argument of periapsis: 282.9484 deg

Mean anomaly: 152.4871 deg

Mean motion: 14.46290509 rev/day

Mean motion (dot): 0.00001566 rev/day2

B* drag term: 0.00041621401 1/REarth

Two-line elements (TLE)

Creation date: Sept. 6, 2025, 2:09 a.m.

Reference frame: TEME

Reference center: EARTH

Epoch: Sept. 5, 2025, 8:11 p.m. UTC

TLE line 0: 0 FENGYUN 1C DEB

TLE line 1: 1 29809U 99025DB 25248.84140635 .00001566 00000-0 41621-3 0 9990

TLE line 2: 2 29809 98.8422 208.0352 0115527 282.9484 152.4871 14.46290509980523

Live tracking on map

Real-time ground track for satellite FENGYUN 1C DEB.

In-orbit conjunctions

A list of the most updated potential collisions computed for object FENGYUN 1C DEB.

Target Orbit TCA Probability of collision Miss distance Type
COSMOS 2251 DEB LEO 2025-01-02 22:19:17 0.0001030922 196.0 (m) DEBRIS
NOAA 16 DEB SSO 2024-11-09 15:54:39 0.0004828174 309.0 (m) DEBRIS

Associated space launch

Chinese polar orbiting meteorological satellite

FENGYUN 1C DEB was lifted into orbit during the mission ‘Long March 4B | Feng Yun 1C’, on board a Long March 4B space rocket.

The launch took place on May 10, 1999, 1:33 a.m. from Launch Complex 7.

For more information about the launch, click the button.

Launch to space Long March 4B | Feng Yun 1C
Long March 4B | Feng Yun 1C

Agency: N/A

Status: Launch Successful

Launch date: May 10, 1999, 1:33 a.m. UTC

Rocket: Long March 4B

Launch pad: Launch Complex 7

Location: Taiyuan Satellite Launch Center, People's Republic of China

...

Latest news about this satellite

There are no fresh news available about this satellite. Check back as we update our databases every day.


Newsletter sign-up

Weekly statistics, charts and insights to help you stay on top of the space industry.